Tracking 29892 objects as of 21-Nov-2024
HD Live streaming from Space Station
objects crossing your sky now

SECOR 1B

Track SECOR 1B now!
10-day predictions
SECOR 1B is classified as:


NORAD ID: 729
Int'l Code: 1964-001C
Perigee: 909.9 km
Apogee: 925.9 km
Inclination: 69.9 °
Period: 103.2 minutes
Semi major axis: 7288 km
RCS: 0.2364 m2 (medium)
Launch date: January 11, 1964
Source: United States (US)
Launch site: AIR FORCE WESTERN TEST RANGE (AFWTR)
Your satellite tracking list
Your tracking list is empty




NASA's NSSDC Master Catalog

Two Line Element Set (TLE):
1   729U 64001C   24325.99045707  .00000079  00000-0  98172-4 0  9993
2   729  69.9008  82.3511 0010980  92.2159 268.0203 13.95124481 97317
Source of the keplerian elements: AFSPC